sat.trackr.live / text

‹ back to catalog

STARLINK-32680

NORAD 62423 · 2024-249Q

PAYLOAD ACTIVE UNKNOWN

§ Identity

Operator
Country
US
Launch date
2024-12-23
Launch site
AFETR
Launch vehicle
Mass (kg)
RCS (m²)

Purposes: comms

External: N2YO · Heavens-Above · Gunter

§ Orbital elements

Epoch: 2026-09-21T08:07:41.373120Z

Period
94.27 min
Inclination
43.0029°
Eccentricity
0.0002227
Mean motion
15.27585545 rev/d
Perigee alt
481.5 km
Apogee alt
484.6 km
Semi-major
6,861.2 km
B*
3.1258e-4
RAAN
289.3244°
Arg perigee
274.9813°
Mean anomaly
85.0784°
Rev number
9,773

§ Raw data

STARLINK-326801 62423U 24249Q   26264.33867330  .00008351  00000+0  31258-3 0  99992 62423  43.0029 289.3244 0002227 274.9813  85.0784 15.27585545 97731

JSON: /api/v1/satellites/62423 · /tle

For live sub-satellite position, see the globe view (requires WebGL).

§ Visibility from observer

Set your observer location to see the next 7 days of passes ≥ 10°. The values pass through the URL so the page stays shareable.

No JS? Fill the form by hand. The geolocation button needs JavaScript.